TimeWET,TemperatureF,Dew PointF,Humidity,Sea Level PressureIn,VisibilityMPH,Wind Direction,Wind SpeedMPH,Gust SpeedMPH,PrecipitationIn,Events,Conditions,WindDirDegrees,DateUTC
6:00 AM,57,52,79,,9,WSW,4.6,,,,Scattered Clouds,240,2012-10-31 06:00:00
6:00 AM,57.2,51.8,82,29.65,6.2,SW,4.6,-,N/A,,Mostly Cloudy,220,2012-10-31 06:00:00
7:00 AM,57.2,51.8,82,29.65,6.2,SW,4.6,-,N/A,,Mostly Cloudy,220,2012-10-31 07:00:00
8:00 AM,57.2,51.8,82,29.68,6.2,East,2.3,-,N/A,,Mostly Cloudy,80,2012-10-31 08:00:00
9:00 AM,59,53,73,,12,NE,4.6,,,,Scattered Clouds,40,2012-10-31 09:00:00
9:00 AM,59.0,51.8,77,29.71,6.2,NE,4.6,-,N/A,,Mostly Cloudy,40,2012-10-31 09:00:00
10:00 AM,64.4,53.6,68,29.74,6.2,ESE,4.6,-,N/A,,Mostly Cloudy,120,2012-10-31 10:00:00
11:00 AM,66.2,51.8,60,29.74,6.2,SSE,4.6,-,N/A,,Scattered Clouds,160,2012-10-31 11:00:00
12:00 PM,69,53,46,,12,NNE,4.6,,,,Scattered Clouds,20,2012-10-31 12:00:00
12:00 PM,68.0,51.8,56,29.74,6.2,NNE,4.6,-,N/A,,Scattered Clouds,20,2012-10-31 12:00:00
1:00 PM,69.8,51.8,53,29.71,6.2,NNW,4.6,-,N/A,,Scattered Clouds,340,2012-10-31 13:00:00
2:00 PM,71.6,51.8,50,29.71,6.2,NNW,6.9,-,N/A,,Partly Cloudy,340,2012-10-31 14:00:00
3:00 PM,71,52,40,,12,Calm,Calm,,,,Mostly Cloudy,,2012-10-31 15:00:00
3:00 PM,71.6,51.8,50,29.71,6.2,Calm,Calm,-,N/A,,Partly Cloudy,0,2012-10-31 15:00:00
4:00 PM,71.6,51.8,50,29.71,6.2,East,4.6,-,N/A,,Partly Cloudy,80,2012-10-31 16:00:00
5:00 PM,71.6,51.8,50,29.74,6.2,ENE,4.6,-,N/A,,Partly Cloudy,60,2012-10-31 17:00:00
6:00 PM,71,53,43,,12,NNW,4.6,,,,Mostly Cloudy,340,2012-10-31 18:00:00
6:00 PM,71.6,53.6,53,29.74,6.2,North,4.6,-,N/A,,Partly Cloudy,360,2012-10-31 18:00:00
9:00 PM,66,55,59,,9,Calm,Calm,,,,Mostly Cloudy,,2012-10-31 21:00:00
9:00 PM,66.2,55.4,68,29.77,6.2,Calm,Calm,-,N/A,,Partly Cloudy,0,2012-10-31 21:00:00